Regional Weather Roundup
Issued by NWS

Home | Current Version | Previous Version | Graphics & Text | Print | Product List | Glossary On
Versions: 1 2 3 4 5 6 7 8 9 10 11 12 13 14 15 16 17 18 19 20 21 22 23 24 25 26 27 28 29 30 31 32 33 34 35 36 37 38 39 40 41 42 43 44 45 46 47 48 49 50
000
ASUS43 KFSD 240602
RWRSD

WEATHER ROUNDUP FOR SOUTH DAKOTA
NATIONAL WEATHER SERVICE SIOUX FALLS SD
100 AM CDT WED MAY 24 2017

NOTE: "FAIR" INDICATES FEW OR NO CLOUDS BELOW 12,000 FEET WITH NO
SIGNIFICANT WEATHER AND/OR OBSTRUCTIONS TO VISIBILITY.


SDZ001>005-009-010-012>017-240700-
NORTHWEST AND NORTH CENTRAL SOUTH DAKOTA

CITY           SKY/WX    TMP DP  RH WIND       PRES   REMARKS
BUFFALO          N/A     48  37  65 S10       29.85F
FAITH            N/A     45  36  70 SE10      29.94F
MOBRIDGE       CLEAR     38  33  82 CALM      29.92F
$$

SDZ012>016-024>037-041>051-057-063-072>074-240700-
SOUTHWEST AND SOUTH CENTRAL SOUTH DAKOTA

CITY           SKY/WX    TMP DP  RH WIND       PRES   REMARKS
RAPID CTY ARPT CLOUDY    43  34  70 S6        29.96F
PIERRE         CLOUDY    40  35  83 N3        29.93F
CUSTER         CLOUDY    37  28  70 S3        29.99F
ELLSWORTH AFB  PTCLDY    47  36  64 S8        29.95F
PHILIP         CLOUDY    36  34  92 W3        29.95F
PINE RIDGE     CLOUDY    42  37  82 CALM      29.99F
SPEARFISH      FAIR      46  34  61 CALM      29.94F
WINNER         FAIR      43  39  86 W6        29.95F
$$

SDZ004>011-016>023-039-040-240700-
NORTHEAST SOUTH DAKOTA

CITY           SKY/WX    TMP DP  RH WIND       PRES   REMARKS
ABERDEEN       CLEAR     41  37  86 NW7       29.91F
WATERTOWN      CLEAR     39  38  96 N7        29.88F
BROOKINGS      CLEAR     45  43  93 N5        29.87F
SISSETON         N/A     42  41  96 NW7       29.88F
$$

SDZ017-020-022-023-036>040-048>070-240700-
SOUTHEAST SOUTH DAKOTA

CITY           SKY/WX    TMP DP  RH WIND       PRES   REMARKS
SIOUX FALLS    MOCLDY    47  45  93 N8        29.86F
HURON          PTCLDY    38  38 100 W6        29.90F
CHAMBERLAIN    CLEAR     45  42  91 CALM      29.93F
MITCHELL       CLEAR     45  42  89 NW8       29.91F
YANKTON        CLEAR     46  44  93 NW12      29.88F
$$

ABBREVIATIONS USED IN REMARKS
   TC - TEMPERATURE IN CELSIUS
  WCI - WIND CHILL INDEX
   HX - HEAT INDEX
  VSB - VISIBILITY




USA.gov is the U.S. government's official web portal to all federal, state and local government web resources and services.